Wind_Speed
24 25 26 27 26 25 23 21 21 22 23 22 23 24 23 22 20 20 22 22 23 23 25 26 27 29 30 31 32 31 30 30 31 31 32 33 34 36 38 41 43 45 47 49
26 27 28 29 26 24 23 22 22 23 23 23 25 26 25 25 25 24 24 24 25 26 28 28 29 31 33 35 36 35 34 35 35 36 37 38 40 42 43 44 45 47 49 52
27 29 29 28 26 23 22 22 23 25 24 25 26 26 26 26 27 27 26 27 28 29 30 31 32 34 35 36 37 37 37 38 39 40 41 44 45 46 47 48 50 52 55 58
29 30 29 28 26 23 24 24 24 25 23 20 24 16 27 25 25 26 27 29 30 32 33 34 36 36 36 35 36 38 40 41 43 43 44 46 48 51 52 53 56 59 63 67
30 30 29 28 26 24 25 25 25 25 24 23 24 18 22 26 24 25 27 29 31 33 34 35 36 36 37 37 38 40 42 43 44 45 47 49 52 54 56 59 63 67 70 73
30 29 28 27 26 25 25 24 25 25 23 23 22 20 17 27 24 26 27 28 30 32 33 34 36 37 39 39 40 41 42 44 45 47 50 52 55 58 61 65 69 72 76 79
28 28 27 26 25 25 24 23 23 22 22 21 25 23 22 27 25 26 27 28 30 32 33 35 37 39 40 40 40 41 42 43 46 49 52 55 59 63 67 70 74 77 80 83
29 28 27 26 25 25 23 22 21 20 18 18 27 25 27 25 26 27 28 29 31 33 34 36 37 37 37 37 38 39 42 45 48 52 55 60 64 68 71 74 78 81 84 85
29 27 29 27 26 26 25 25 23 23 23 22 22 28 27 25 26 27 28 29 31 33 34 34 34 34 35 36 39 42 45 49 52 56 60 64 68 71 75 78 81 83 82 79
30 28 29 27 27 27 26 25 27 26 24 23 21 24 24 26 27 29 31 32 33 33 32 32 33 34 37 40 43 46 50 53 57 61 65 69 73 76 79 80 80 78 73 65
32 31 31 30 29 27 27 27 26 24 23 23 21 22 30 30 31 33 34 35 34 33 33 34 36 38 41 45 48 51 55 58 62 67 71 74 77 79 79 76 71 64 55 50
35 33 31 35 32 29 29 28 27 26 27 27 25 27 32 33 34 36 37 37 35 35 35 37 40 43 46 49 52 56 60 65 69 73 76 78 78 76 71 63 55 48 45 43
39 38 38 40 37 34 32 28 26 26 27 29 28 30 35 35 37 39 40 39 38 38 39 41 43 46 49 52 57 61 66 70 73 76 76 75 70 63 55 48 42 40 38 37
43 43 43 40 34 33 32 30 28 28 29 31 32 35 36 38 40 41 40 40 39 40 42 44 46 48 52 56 61 66 69 72 73 71 66 60 52 45 40 36 34 33 31 31
46 47 46 43 39 39 38 36 34 33 33 34 37 39 39 40 41 41 41 41 41 43 44 45 47 51 56 60 64 67 69 67 62 55 48 41 35 31 28 27 26 26 27 28
48 49 46 45 44 42 42 41 39 37 36 36 38 40 39 41 41 40 40 41 42 43 44 46 50 54 58 61 63 64 59 52 45 38 32 27 24 22 21 22 23 24 25 26
48 48 47 48 46 44 45 43 40 37 37 37 39 39 39 40 40 40 40 41 41 42 44 48 52 56 59 60 58 52 44 37 30 26 22 20 19 19 20 22 23 24 26 28
42 44 45 46 44 43 47 40 38 37 37 37 38 37 38 39 39 40 40 39 39 41 46 50 54 56 57 53 46 38 30 23 20 18 18 18 19 21 23 24 26 28 29 29
39 39 40 40 39 42 40 36 35 35 36 36 36 36 37 37 37 38 36 36 39 43 47 51 54 53 48 40 31 22 17 16 16 16 18 20 22 24 26 28 29 29 30 30
38 37 36 34 34 36 35 33 34 35 36 34 34 34 34 34 34 35 33 36 40 44 48 51 49 42 34 25 17 13 13 13 15 17 20 22 25 27 29 30 31 32 33 32
40 38 37 35 34 35 33 32 33 34 34 32 32 32 31 30 30 31 33 37 41 45 47 44 37 28 20 13 10 9 10 12 15 18 21 24 27 29 32 34 34 35 34 33
38 37 36 36 34 33 30 30 31 31 31 30 29 28 27 26 27 30 34 38 42 44 40 33 24 16 9 6 5 7 10 14 17 20 23 26 29 32 35 36 35 34 33 31
37 37 35 33 31 29 28 28 28 28 28 27 25 24 23 24 27 30 35 39 41 37 28 19 11 4 1 4 6 9 12 15 19 22 25 29 32 35 38 38 36 34 32 30
24 23 24 26 26 26 26 26 26 26 25 24 23 22 22 24 28 32 36 37 33 24 15 7 2 4 7 8 9 11 14 17 20 23 27 31 35 38 40 40 38 35 32 30
20 22 24 25 26 27 27 26 25 25 24 22 21 21 23 26 30 33 34 30 21 12 5 5 9 11 10 9 10 13 15 17 20 24 28 32 36 39 40 40 39 36 32 30
23 25 26 27 28 28 28 27 25 23 21 20 20 22 25 27 30 31 28 19 10 6 9 13 14 13 11 10 11 13 15 17 20 24 28 32 35 38 40 40 39 36 33 31
Wind_Direction
246 246 248 251 254 258 263 266 268 269 273 271 270 272 274 273 267 265 268 271 271 272 274 278 285 291 296 299 300 297 289 283 279 278 280 281 282 284 285 286 287 288 289 289
246 247 249 253 256 258 262 265 266 266 268 269 269 270 271 269 269 269 270 270 269 270 271 275 281 288 293 296 296 294 288 282 283 284 286 287 287 288 289 289 289 290 291 291
248 248 249 252 255 258 261 263 264 267 269 270 272 274 269 266 268 269 269 268 268 271 274 278 283 287 290 291 292 290 287 284 286 287 288 288 289 291 292 293 294 294 295 296
247 249 251 253 256 258 261 260 261 264 268 268 268 264 281 271 267 268 269 270 273 276 279 283 285 286 286 286 286 286 284 284 284 285 286 287 290 293 294 295 296 297 297 297
249 250 253 255 257 258 257 262 262 263 263 258 269 257 268 277 277 275 274 274 276 279 281 282 283 283 283 282 281 280 280 281 282 283 284 288 291 293 294 295 296 296 296 296
251 252 253 255 257 257 259 260 261 262 263 263 261 265 258 271 276 275 274 275 276 277 278 279 280 280 280 279 278 277 277 278 280 283 286 289 291 291 292 293 294 294 295 296
251 252 253 254 255 256 256 257 260 261 262 263 263 269 254 273 278 277 278 279 279 279 279 279 280 280 280 279 279 279 280 282 284 286 287 289 289 290 291 292 293 294 295 296
253 254 253 253 252 253 252 250 248 250 252 258 269 268 271 278 280 282 284 284 284 284 283 283 283 282 281 281 282 283 285 286 287 287 288 289 290 291 292 293 294 295 296 297
252 251 255 252 250 249 249 246 241 244 250 247 256 269 278 280 284 288 290 290 290 288 287 286 285 284 284 284 285 287 288 289 289 289 290 291 292 293 294 295 296 297 298 299
248 247 253 250 249 247 245 243 245 244 246 253 256 272 279 284 288 292 295 296 296 293 291 289 288 288 288 289 290 291 291 292 293 293 294 294 295 295 297 298 299 299 299 299
245 246 250 248 246 245 245 244 246 245 241 247 256 263 276 284 290 294 297 299 297 294 292 291 291 292 293 294 295 296 297 297 297 296 296 297 297 298 299 300 300 300 299 298
241 243 245 249 248 246 244 245 247 248 253 256 254 260 269 281 290 294 297 299 297 294 292 292 294 296 297 298 299 300 300 299 299 299 299 300 300 300 301 301 301 299 299 300
237 237 239 248 249 247 247 250 255 256 255 258 262 268 276 284 290 293 297 298 297 295 295 296 298 300 301 302 302 301 301 301 301 301 301 301 301 301 301 300 299 300 301 303
238 238 241 247 254 259 254 254 260 261 260 262 267 270 279 286 290 294 296 297 297 297 298 300 302 302 303 302 302 302 303 304 304 304 303 303 303 302 301 300 301 303 306 310
238 240 241 244 244 249 257 259 260 260 258 261 268 275 280 285 290 294 295 296 297 298 300 301 301 302 302 302 304 305 306 307 307 307 307 307 307 306 305 305 308 312 315 318
236 240 242 244 247 250 254 258 259 261 264 266 270 275 281 285 289 292 293 295 296 297 298 299 300 301 302 305 307 308 309 310 312 314 315 316 316 316 316 317 319 320 321 321
235 238 240 243 246 250 252 254 258 262 265 268 271 276 281 284 287 290 292 293 294 295 297 298 300 302 304 307 309 311 313 315 318 323 327 330 331 330 328 326 324 323 320 318
232 236 238 242 244 245 251 255 258 261 263 266 271 275 279 284 287 290 291 292 293 294 296 298 301 304 307 310 312 314 318 324 330 336 341 343 342 338 335 332 328 324 322 320
226 231 236 240 243 248 252 254 256 258 261 265 270 275 280 285 287 289 291 289 291 293 297 300 304 307 310 312 316 321 329 336 342 347 349 348 345 342 338 336 333 331 327 324
223 229 234 238 241 247 250 253 255 258 262 267 271 276 281 284 283 287 288 288 292 296 300 304 307 309 311 315 321 331 340 347 353 356 356 353 350 348 345 342 338 333 329 325
223 230 236 240 242 247 251 252 255 258 263 267 270 275 278 278 278 283 286 291 296 300 304 307 309 310 313 319 332 350 3 6 7 5 3 0 358 354 350 346 341 337 334 331
228 232 237 240 243 247 249 251 253 258 262 265 269 272 272 273 276 282 289 295 299 303 307 308 308 309 317 337 14 28 23 20 17 15 12 8 3 360 357 353 349 346 344 341
236 237 237 238 241 245 247 252 255 259 262 263 264 264 266 271 280 288 293 299 304 307 307 305 304 305 26 79 65 45 35 30 25 21 16 11 8 5 3 360 357 354 352 349
234 239 242 242 242 246 250 253 256 257 257 257 255 257 265 277 286 292 297 303 306 304 299 290 212 137 120 98 69 52 43 34 26 20 15 12 9 8 6 4 0 358 356 354
242 243 244 244 244 245 247 250 251 251 249 246 250 261 273 282 288 294 301 304 301 290 256 165 144 134 117 92 69 54 42 31 23 18 14 11 9 8 7 6 3 360 358 357
240 242 242 243 242 241 243 245 244 240 238 246 258 269 277 283 291 298 302 297 277 216 162 148 141 130 110 87 67 50 36 26 19 15 12 9 8 7 7 7 5 3 360 358
Height
5856 5857 5857 5857 5858 5860 5861 5862 5862 5861 5859 5859 5858 5858 5858 5858 5859 5858 5858 5857 5857 5855 5854 5852 5849 5846 5843 5840 5837 5834 5832 5829 5826 5824 5822 5819 5817 5814 5811 5808 5805 5801 5798 5794
5850 5851 5851 5851 5853 5855 5856 5856 5857 5856 5855 5854 5853 5853 5853 5853 5853 5853 5852 5852 5851 5850 5848 5846 5844 5841 5838 5834 5831 5827 5824 5821 5818 5816 5813 5810 5807 5804 5801 5797 5794 5790 5786 5782
5844 5844 5844 5846 5848 5849 5850 5851 5851 5851 5850 5849 5848 5847 5847 5847 5847 5847 5847 5846 5845 5844 5842 5840 5837 5834 5831 5828 5824 5820 5817 5813 5810 5807 5804 5800 5796 5792 5789 5785 5782 5777 5773 5769
5836 5837 5838 5840 5842 5843 5844 5844 5845 5845 5846 5846 5845 5849 5840 5841 5841 5841 5841 5839 5838 5836 5834 5831 5829 5826 5823 5820 5817 5812 5808 5805 5801 5797 5794 5790 5786 5782 5777 5773 5768 5763 5758 5753
5830 5831 5832 5834 5836 5837 5838 5838 5839 5839 5840 5841 5839 5842 5841 5835 5834 5834 5833 5832 5830 5828 5826 5823 5820 5817 5814 5812 5808 5805 5801 5797 5793 5789 5785 5780 5776 5771 5765 5760 5754 5749 5742 5736
5823 5824 5826 5827 5828 5830 5830 5832 5832 5832 5834 5835 5834 5835 5838 5828 5829 5827 5826 5825 5823 5820 5817 5814 5811 5808 5805 5802 5799 5796 5792 5788 5784 5780 5776 5771 5765 5760 5754 5748 5741 5735 5727 5719
5816 5817 5818 5820 5821 5822 5824 5826 5827 5827 5828 5830 5827 5827 5829 5823 5822 5821 5819 5817 5815 5812 5809 5806 5803 5800 5796 5793 5790 5787 5783 5779 5775 5771 5765 5760 5754 5748 5741 5734 5726 5719 5711 5702
5810 5811 5812 5813 5815 5816 5817 5820 5823 5824 5826 5827 5820 5820 5818 5817 5815 5813 5811 5809 5806 5803 5800 5797 5794 5791 5787 5784 5781 5778 5774 5769 5764 5759 5754 5748 5741 5734 5726 5718 5710 5701 5692 5682
5804 5806 5804 5806 5808 5809 5810 5812 5816 5817 5817 5818 5817 5811 5811 5809 5808 5806 5804 5801 5798 5795 5792 5788 5785 5782 5779 5776 5772 5768 5763 5758 5753 5747 5741 5734 5726 5718 5709 5700 5691 5682 5672 5662
5797 5798 5797 5799 5801 5802 5804 5806 5806 5808 5809 5810 5811 5806 5805 5802 5801 5799 5796 5794 5791 5787 5784 5780 5777 5774 5770 5766 5762 5757 5752 5747 5741 5733 5726 5717 5709 5700 5691 5681 5671 5662 5653 5645
5789 5790 5790 5792 5793 5796 5797 5798 5799 5801 5803 5804 5805 5805 5796 5795 5794 5791 5788 5785 5782 5779 5776 5772 5769 5765 5761 5757 5751 5746 5740 5733 5726 5717 5708 5699 5690 5680 5671 5661 5653 5645 5638 5632
5780 5782 5783 5783 5785 5787 5789 5791 5793 5794 5794 5794 5796 5798 5791 5788 5786 5783 5780 5777 5774 5771 5767 5764 5760 5756 5751 5746 5739 5733 5725 5717 5709 5699 5690 5680 5670 5661 5653 5645 5638 5632 5627 5622
5771 5773 5774 5772 5777 5779 5780 5783 5785 5786 5787 5786 5787 5788 5782 5780 5778 5775 5772 5769 5766 5763 5759 5754 5750 5745 5740 5733 5726 5719 5710 5702 5692 5681 5671 5661 5652 5645 5638 5632 5628 5623 5618 5613
5760 5762 5765 5767 5770 5770 5771 5774 5776 5777 5778 5778 5778 5776 5774 5772 5769 5767 5764 5760 5757 5753 5749 5745 5740 5734 5728 5722 5714 5705 5696 5686 5675 5664 5654 5645 5638 5632 5628 5624 5620 5616 5611 5606
5747 5750 5753 5756 5759 5761 5762 5764 5766 5768 5769 5770 5769 5766 5765 5764 5761 5759 5755 5752 5748 5744 5740 5735 5730 5724 5718 5710 5702 5692 5682 5672 5661 5651 5642 5635 5629 5625 5621 5618 5614 5610 5605 5600
5734 5738 5743 5746 5748 5751 5753 5754 5756 5758 5760 5761 5760 5758 5757 5756 5753 5750 5747 5743 5740 5736 5731 5726 5720 5714 5707 5699 5690 5680 5670 5660 5651 5643 5636 5630 5625 5622 5618 5614 5610 5605 5600 5594
5723 5728 5733 5734 5738 5741 5742 5744 5747 5749 5750 5751 5750 5750 5749 5747 5745 5742 5739 5736 5732 5727 5722 5717 5711 5704 5697 5688 5679 5669 5660 5652 5645 5639 5633 5628 5624 5620 5615 5611 5606 5600 5595 5589
5710 5716 5720 5722 5728 5730 5731 5736 5738 5740 5740 5741 5741 5741 5740 5738 5736 5733 5731 5727 5723 5719 5714 5708 5701 5694 5686 5678 5669 5661 5654 5649 5643 5638 5633 5628 5623 5618 5613 5608 5602 5596 5589 5582
5700 5705 5709 5713 5717 5718 5724 5727 5729 5730 5730 5732 5732 5732 5731 5729 5727 5724 5722 5719 5715 5710 5705 5699 5692 5684 5677 5669 5662 5657 5652 5648 5643 5638 5633 5628 5622 5617 5610 5604 5597 5590 5583 5576
5690 5696 5701 5705 5708 5710 5714 5718 5718 5720 5721 5723 5723 5722 5722 5720 5718 5715 5714 5710 5706 5701 5695 5689 5682 5676 5669 5664 5659 5656 5652 5648 5643 5638 5633 5627 5621 5614 5608 5600 5593 5585 5577 5569
5682 5687 5691 5696 5698 5699 5705 5707 5709 5711 5713 5713 5713 5713 5712 5711 5710 5708 5705 5702 5697 5692 5686 5680 5674 5669 5664 5661 5658 5656 5652 5648 5644 5638 5632 5626 5620 5612 5605 5596 5588 5579 5570 5562
5673 5678 5682 5686 5689 5693 5695 5697 5699 5701 5703 5703 5704 5704 5704 5703 5703 5701 5698 5693 5689 5683 5678 5672 5668 5664 5662 5660 5658 5656 5653 5648 5643 5638 5632 5626 5619 5611 5602 5593 5583 5574 5565 5557
5665 5670 5674 5678 5682 5685 5686 5688 5690 5692 5694 5695 5695 5696 5697 5696 5695 5693 5689 5685 5680 5675 5671 5667 5664 5663 5662 5661 5659 5657 5653 5648 5644 5638 5632 5625 5617 5609 5600 5590 5581 5572 5563 5554
5657 5661 5665 5669 5672 5675 5678 5680 5682 5684 5686 5687 5689 5690 5690 5689 5688 5685 5681 5677 5673 5669 5666 5664 5663 5663 5663 5662 5660 5657 5653 5649 5644 5638 5631 5624 5616 5607 5598 5589 5579 5570 5561 5553
5651 5654 5658 5661 5664 5667 5670 5673 5675 5677 5679 5681 5683 5683 5683 5682 5680 5678 5674 5671 5667 5665 5664 5664 5664 5664 5664 5663 5660 5657 5654 5650 5644 5638 5631 5624 5615 5607 5598 5588 5579 5570 5561 5552
5644 5648 5651 5654 5658 5661 5663 5666 5668 5671 5673 5675 5676 5677 5676 5675 5673 5671 5668 5665 5664 5663 5663 5664 5665 5666 5665 5664 5661 5658 5655 5651 5645 5639 5631 5623 5615 5607 5598 5589 5579 5569 5560 5552